PDT,Max TemperatureF,Mean TemperatureF,Min TemperatureF,Max Dew PointF,MeanDew PointF,Min DewpointF,Max Humidity, Mean Humidity, Min Humidity, Max Sea Level PressureIn, Mean Sea Level PressureIn, Min Sea Level PressureIn, Max VisibilityMiles, Mean VisibilityMiles, Min VisibilityMiles, Max Wind SpeedMPH, Mean Wind SpeedMPH, Max Gust SpeedMPH,PrecipitationIn, CloudCover, Events, WindDirDegrees
2013-3-1,58,48,37,42,38,34,100,76,51,30.32,30.25,30.19,10,8,1,20,8,28,T,5,Rain,183
2013-3-2,53,44,34,39,35,18,92,76,59,30.22,30.05,29.88,10,10,10,18,6,28,T,1,Rain,199
2013-3-3,51,41,31,24,20,14,64,45,26,30.26,30.09,29.95,10,10,10,17,8,22,0.00,3,,355
2013-3-4,47,38,29,25,23,21,72,55,37,30.33,30.24,30.12,10,10,10,14,6,18,0.00,4,,314
2013-3-5,46,38,29,28,26,23,78,62,45,30.11,29.99,29.86,10,10,10,17,6,22,0.00,5,,344
2013-3-6,39,36,33,34,32,29,96,80,64,29.85,29.72,29.64,10,7,1,15,9,20,0.36,8,Rain-Snow,339
2013-3-7,45,38,31,36,32,30,100,85,70,30.12,29.98,29.80,10,5,0,7,2,8,0.14,8,Fog-Snow,340
2013-3-8,51,41,31,35,32,27,100,75,50,30.19,30.11,30.06,10,10,10,13,4,16,0.00,4,,334
2013-3-9,55,40,25,30,27,22,92,62,32,30.40,30.33,30.22,10,10,10,12,4,15,0.00,0,,262
2013-3-10,50,41,31,31,29,27,82,64,46,30.41,30.32,30.26,10,10,10,14,4,17,0.00,3,,195
2013-3-11,53,39,24,30,25,20,92,61,29,30.40,30.31,30.20,10,10,10,16,5,21,0.00,2,,330
2013-3-12,62,51,39,39,34,28,70,55,39,30.19,30.04,29.94,10,10,10,21,9,25,0.00,6,,189
2013-3-13,62,53,43,42,39,35,76,61,46,30.11,30.06,29.99,10,10,10,24,11,31,0.00,2,,183
2013-3-14,62,50,37,44,39,28,86,64,41,30.08,30.00,29.93,10,10,10,15,6,18,0.00,1,,191
2013-3-15,63,47,31,35,30,26,85,56,27,30.16,30.08,30.01,10,10,10,10,3,14,0.00,1,,258
2013-3-16,58,46,33,35,27,11,82,55,27,30.02,29.83,29.65,10,10,10,21,7,33,T,2,,217
2013-3-17,52,40,28,20,16,8,63,40,17,30.02,29.91,29.71,10,10,10,20,7,29,0.00,2,,348
2013-3-18,53,40,26,24,20,12,81,51,21,30.21,30.04,29.97,10,10,10,22,10,30,0.00,1,,223
2013-3-19,50,36,21,36,22,16,92,58,24,30.30,30.13,29.84,10,10,7,20,5,24,0.12,3,Rain,231
2013-3-20,53,44,34,40,34,27,100,72,44,29.78,29.60,29.46,10,7,0,20,6,25,0.15,7,Fog-Rain,181
2013-3-21,50,39,28,21,16,9,61,40,18,30.09,29.96,29.78,10,10,10,22,7,26,T,3,,274
2013-3-22,48,34,20,23,19,14,74,50,26,30.32,30.20,30.09,10,10,10,17,7,24,0.00,1,,321
2013-3-23,48,35,21,20,17,12,75,50,25,30.41,30.34,30.27,10,10,10,10,5,15,0.00,0,,297
2013-3-24,50,35,19,22,19,15,84,57,29,30.40,30.32,30.23,10,10,10,10,4,16,0.00,0,,240
2013-3-25,53,36,19,22,19,15,84,54,24,30.23,30.14,30.04,10,10,10,12,3,15,0.00,0,,244
2013-3-26,59,41,22,27,23,19,81,53,24,30.08,30.02,29.95,10,10,9,10,5,14,0.00,0,,290
2013-3-27,63,47,30,36,29,25,78,53,27,30.02,29.99,29.96,10,10,10,14,6,17,T,4,,324
2013-3-28,64,49,34,38,34,30,82,58,34,30.10,30.05,30.01,10,10,10,13,4,17,0.00,2,,281
2013-3-29,66,49,31,36,32,29,89,58,26,30.21,30.17,30.12,10,10,10,12,4,18,0.00,0,,262
2013-3-30,68,52,35,34,32,29,76,50,24,30.31,30.22,30.12,10,10,10,13,5,16,0.00,0,,295
2013-3-31,75,55,35,35,32,30,82,51,20,30.14,30.05,29.92,10,10,10,16,9,21,0.00,0,,345